BAW327 LFMN-EGLL

Flight info

Callsign BAW327
Flight time N/A
Altitude 34000
Route BADOD8A BADOD DCT NEDRU DCT LTP DCT BULOL DCT IDAVO DCT BAGBI DCT SIZZA DCT LAULY DCT BRY DCT CLM DCT KOPOR DCT ABNUR DCT DIMAL DCT ALESO ALESO1H
Aircraft A320/M-SDE3FGHIJ1RWXY/S

Departure

Time N/A
Airport Nice-Côte d'Azur Airport (LFMN)

Arrival

Time 2026-05-04 11:22
Airport London Heathrow Airport (EGLL)
Time Latitude Longitude Altitude Speed Heading
2026-05-04 10:42 48.25535 3.54280 34005 ft 460 kts 307°
2026-05-04 10:43 48.29858 3.47261 34006 ft 461 kts 307°
2026-05-04 10:44 48.46950 3.25488 33999 ft 478 kts 333°
2026-05-04 10:45 48.50023 3.23556 33999 ft 479 kts 333°
2026-05-04 10:45 48.56160 3.19641 34000 ft 479 kts 333°
2026-05-04 10:46 48.62299 3.15689 34010 ft 479 kts 333°
2026-05-04 10:46 48.68430 3.11736 34006 ft 479 kts 333°
2026-05-04 10:47 48.74573 3.07775 34002 ft 480 kts 333°
2026-05-04 10:47 48.80716 3.03810 34019 ft 480 kts 333°
2026-05-04 10:49 49.03934 2.84352 34003 ft 476 kts 326°
2026-05-04 10:50 49.09688 2.79296 34017 ft 477 kts 326°
2026-05-04 10:52 49.32451 2.59130 33990 ft 476 kts 326°
2026-05-04 10:52 49.38218 2.53979 33993 ft 476 kts 325°
2026-05-04 10:54 49.61296 2.33723 34007 ft 478 kts 327°
2026-05-04 10:56 49.84595 2.13964 34010 ft 477 kts 327°
2026-05-04 10:57 49.90394 2.08985 34007 ft 477 kts 327°
2026-05-04 10:57 49.96195 2.03989 34009 ft 477 kts 327°
2026-05-04 10:58 50.01995 1.98988 34009 ft 476 kts 327°
2026-05-04 10:58 50.07789 1.93986 34016 ft 476 kts 327°
2026-05-04 10:59 50.13575 1.88967 34017 ft 476 kts 326°
2026-05-04 10:59 50.18938 1.83140 34042 ft 466 kts 312°
2026-05-04 11:00 50.23566 1.76094 34035 ft 464 kts 310°
2026-05-04 11:02 50.41967 1.47902 34055 ft 461 kts 310°
2026-05-04 11:05 50.74231 0.96225 23690 ft 391 kts 311°
2026-05-04 11:06 50.76128 0.93190 22803 ft 386 kts 311°
2026-05-04 11:06 50.77997 0.90191 21997 ft 383 kts 311°
2026-05-04 11:06 50.79866 0.87194 21714 ft 383 kts 311°
2026-05-04 11:06 50.81744 0.84184 21453 ft 384 kts 312°
2026-05-04 11:08 50.94550 0.63641 18641 ft 365 kts 313°
2026-05-04 11:10 51.06868 0.43693 14845 ft 359 kts 313°
2026-05-04 11:12 51.19026 0.25159 12447 ft 313 kts 314°
2026-05-04 11:12 51.20576 0.22780 12239 ft 306 kts 314°
2026-05-04 11:12 51.22108 0.20429 11858 ft 305 kts 314°
2026-05-04 11:12 51.23634 0.18080 11520 ft 304 kts 314°
2026-05-04 11:13 51.25147 0.15747 11190 ft 302 kts 314°
2026-05-04 11:13 51.26655 0.13422 10859 ft 301 kts 314°
2026-05-04 11:13 51.28153 0.11106 10547 ft 299 kts 314°
2026-05-04 11:13 51.29644 0.08799 10301 ft 295 kts 314°
2026-05-04 11:14 51.30117 0.08067 10268 ft 292 kts 314°
2026-05-04 11:16 51.46601 -0.06426 5178 ft 277 kts 289°
2026-05-04 11:16 51.47036 -0.09411 4496 ft 275 kts 279°
2026-05-04 11:16 51.47364 -0.12434 3801 ft 276 kts 279°
2026-05-04 11:17 51.47685 -0.15469 3111 ft 275 kts 278°
2026-05-04 11:17 51.47823 -0.18500 2666 ft 267 kts 271°
2026-05-04 11:19 51.47786 -0.34060 1785 ft 152 kts 271°
2026-05-04 11:19 51.47769 -0.35815 1215 ft 162 kts 271°
2026-05-04 11:19 51.47756 -0.37595 801 ft 152 kts 272°
2026-05-04 11:19 51.47766 -0.39244 521 ft 144 kts 273°
2026-05-04 11:20 51.47780 -0.40834 384 ft 143 kts 271°
2026-05-04 11:20 51.47768 -0.42402 240 ft 140 kts 271°
2026-05-04 11:20 51.47763 -0.43967 100 ft 137 kts 272°
2026-05-04 11:20 51.47767 -0.45210 89 ft 78 kts 268°
2026-05-04 11:22 51.47592 -0.46692 86 ft 30 kts 269°
2026-05-04 11:24 51.47361 -0.48588 88 ft 0 kts 269°